Location: Unspecified
(46.0725°N, 13.7344°E)
Time: 00:14:55
(UTC+01:00)

Cosmos 2058 - Pass Details

Date: 25 October 2019
Orbit: 563 x 583 km, 82.5° (Epoch: 14 November)

Event Time Altitude Azimuth Distance (km) Brightness Sun altitude
Rises 19:40:15 0° 349° (N) 2,817 6.6 -17.6°
Reaches altitude 10° 19:42:27 10° 348° (NNW) 1,911 5.7 -18.0°
Maximum altitude 19:46:40 75° 263° (W) 606 3.1 -18.7°
Drops below altitude 10° 19:50:49 10° 179° (S) 1,886 5.5 -19.4°
Sets 19:52:59 0° 177° (S) 2,776 6.4 -19.8°
